Weather History for Thedford, NE

Change the Weather History Date:

Monday, September 23, 2013

  Actual Average (KLBF) Record (KLBF)
Temperature  
Mean Temperature 64 °F 59 °F  
Max Temperature 72 °F 75 °F 95 °F (1921)
Min Temperature 57 °F 43 °F 23 °F (1989)
Degree Days  
Heating Degree Days 0 7  
Month to date heating degree days 91  
Since 1 July heating degree days 111  
Cooling Degree Days 0 1  
Month to date cooling degree days 65  
Year to date cooling degree days 760  
Growing Degree Days 14 (Base 50)    
Moisture  
Dew Point 49 °F    
Average Humidity 59    
Maximum Humidity 82    
Minimum Humidity 39    
Precipitation  
Precipitation 0.00 in 0.05 in 0.95 in (1941)
Month to date precipitation 1.08  
Year to date precipitation 17.30  
Snow  
Snow 0.00 in 0.00 in 0.40 in (2000)
Month to date snowfall 0.1  
Since 1 July snowfall 0.1  
Since 1 September snowfall 0.1  
Snow Depth -    
Sea Level Pressure  
Sea Level Pressure 29.67 in    
Wind  
Wind Speed 16 mph (SSE)    
Max Wind Speed 24 mph    
Max Gust Speed 31 mph    
Visibility 10 miles    
Events Rain    
T = Trace of Precipitation, MM = Missing Value Source: NWS Daily Summary

Daily Weather History Graph

Daily Weather History Graph

Search for Another Location

Airport:

Trip Planner

Search our weather history database for the weather conditions in past years. The results will help you decide how hot, cold, wet, or windy it might be!

Date:

Astronomy

Sep. 23, 2013 Rise Set
Actual Time 7:31 AM CDT 7:37 PM CDT
Civil Twilight 7:03 AM CDT 8:05 PM CDT
Nautical Twilight 6:30 AM CDT 8:37 PM CDT
Astronomical Twilight 5:57 AM CDT 9:10 PM CDT
Moon 10:06 PM CDT (9/23) 11:56 AM CDT (9/23)
Length of Visible Light 13h 01m
Length of Day
12h 06m
Waning Gibbous, 81% of the Moon is Illuminated
Sep 23
Waning Gibbous
Sep 26
Last Quarter
Oct 4
New
Oct 11
First Quarter
Oct 18
Full

Hourly Weather History & Observations

Time (CDT) Temp. Dew Point Humidity Pressure Visibility Wind Dir Wind Speed Gust Speed Precip Events Conditions
12:15 AM 68.4 °F 48.7 °F 49% 29.64 in 10.0 mi SSE 24.2 mph 27.6 mph N/A   Clear
12:35 AM 68.0 °F 48.7 °F 50% 29.64 in 10.0 mi South 23.0 mph 31.1 mph N/A   Clear
12:55 AM 67.1 °F 48.7 °F 52% 29.63 in 10.0 mi South 21.9 mph 28.8 mph N/A   Clear
1:15 AM 67.1 °F 48.7 °F 52% 29.63 in 10.0 mi SSE 23.0 mph 31.1 mph N/A   Clear
1:35 AM 66.2 °F 48.6 °F 53% 29.62 in 10.0 mi SSE 20.7 mph 29.9 mph N/A   Clear
1:55 AM 66.2 °F 48.4 °F 53% 29.62 in 10.0 mi SSE 20.7 mph 29.9 mph N/A   Clear
2:15 AM 65.5 °F 48.2 °F 54% 29.63 in 10.0 mi South 17.3 mph 21.9 mph N/A   Clear
2:35 AM 64.8 °F 47.8 °F 54% 29.62 in 10.0 mi SSE 18.4 mph 23.0 mph N/A   Clear
2:55 AM 64.4 °F 47.5 °F 54% 29.62 in 10.0 mi South 15.0 mph 20.7 mph N/A   Clear
3:15 AM 63.5 °F 47.3 °F 56% 29.61 in 10.0 mi SSE 12.7 mph 21.9 mph N/A   Clear
3:35 AM 62.6 °F 47.1 °F 57% 29.60 in 10.0 mi SSE 12.7 mph - N/A   Clear
3:55 AM 61.3 °F 47.3 °F 60% 29.60 in 10.0 mi SSE 9.2 mph - N/A   Clear
4:15 AM 60.8 °F 46.9 °F 60% 29.60 in 10.0 mi SSE 11.5 mph - N/A   Clear
4:35 AM 60.3 °F 46.4 °F 60% 29.59 in 10.0 mi SSE 11.5 mph - N/A   Clear
4:55 AM 60.3 °F 46.0 °F 59% 29.59 in 10.0 mi SSE 11.5 mph - N/A   Clear
5:15 AM 60.3 °F 45.7 °F 59% 29.59 in 10.0 mi SSE 11.5 mph - N/A   Clear
5:35 AM 59.5 °F 45.9 °F 61% 29.59 in 10.0 mi SSE 12.7 mph - N/A   Clear
5:55 AM 59.2 °F 45.7 °F 61% 29.59 in 10.0 mi SE 10.4 mph - N/A   Clear
6:15 AM 58.5 °F 45.7 °F 62% 29.59 in 10.0 mi SSE 10.4 mph - N/A   Clear
6:35 AM 59.2 °F 45.9 °F 61% 29.59 in 10.0 mi SSE 15.0 mph - N/A   Clear
6:55 AM 59.2 °F 45.7 °F 61% 29.59 in 10.0 mi SSE 15.0 mph - N/A   Clear
7:15 AM 59.0 °F 45.7 °F 61% 29.59 in 10.0 mi SSE 13.8 mph - N/A   Clear
7:35 AM 58.6 °F 45.7 °F 62% 29.59 in 10.0 mi SSE 13.8 mph 18.4 mph N/A   Clear
7:55 AM 59.0 °F 45.9 °F 62% 29.60 in 10.0 mi SSE 13.8 mph - N/A   Clear
8:15 AM 59.5 °F 46.0 °F 61% 29.60 in 10.0 mi SSE 17.3 mph 23.0 mph N/A   Clear
8:35 AM 60.3 °F 46.0 °F 59% 29.59 in 10.0 mi SSE 20.7 mph 26.5 mph N/A   Clear
8:55 AM 60.8 °F 46.2 °F 59% 29.59 in 10.0 mi SSE 18.4 mph 26.5 mph N/A   Clear
9:15 AM 61.0 °F 46.4 °F 59% 29.60 in 10.0 mi SSE 18.4 mph 24.2 mph N/A   Clear
9:35 AM 61.9 °F 46.4 °F 57% 29.60 in 10.0 mi SSE 13.8 mph 26.5 mph N/A   Clear
9:55 AM 63.1 °F 46.4 °F 54% 29.62 in 10.0 mi South 17.3 mph 26.5 mph N/A   Scattered Clouds
10:15 AM 62.8 °F 46.6 °F 55% 29.62 in 10.0 mi South 12.7 mph 23.0 mph N/A   Mostly Cloudy
10:35 AM 60.6 °F 48.4 °F 64% 29.63 in 10.0 mi South 11.5 mph 24.2 mph N/A Rain Light Rain
10:55 AM 60.3 °F 48.9 °F 66% 29.63 in 10.0 mi SSE 11.5 mph - N/A Rain Light Rain
11:15 AM 64.0 °F 47.5 °F 55% 29.64 in 10.0 mi SSE 13.8 mph 20.7 mph N/A   Scattered Clouds
11:35 AM 67.1 °F 47.5 °F 49% 29.64 in 10.0 mi SE 13.8 mph - N/A   Scattered Clouds
11:55 AM 69.4 °F 46.4 °F 44% 29.64 in 10.0 mi SSE 16.1 mph - N/A   Clear
12:15 PM 70.9 °F 46.0 °F 41% 29.63 in 10.0 mi SSE 15.0 mph 23.0 mph N/A   Scattered Clouds
12:35 PM 71.2 °F 45.9 °F 40% 29.63 in 10.0 mi SE 15.0 mph 26.5 mph N/A   Clear
12:55 PM 72.0 °F 45.9 °F 39% 29.63 in 10.0 mi SSE 16.1 mph 27.6 mph N/A   Clear
1:15 PM 72.5 °F 46.2 °F 39% 29.63 in 10.0 mi SE 19.6 mph 25.3 mph N/A   Clear
1:35 PM 72.3 °F 46.2 °F 39% 29.62 in 10.0 mi SE 15.0 mph 23.0 mph N/A   Scattered Clouds
1:55 PM 71.6 °F 46.6 °F 41% 29.63 in 10.0 mi SSE 19.6 mph 29.9 mph N/A   Scattered Clouds
2:15 PM 70.2 °F 48.6 °F 46% 29.63 in 10.0 mi ESE 18.4 mph 25.3 mph N/A   Scattered Clouds
2:35 PM 68.4 °F 48.6 °F 49% 29.64 in 10.0 mi SSE 18.4 mph 24.2 mph N/A   Mostly Cloudy
2:55 PM 63.3 °F 53.8 °F 71% 29.66 in 10.0 mi SSE 9.2 mph - N/A Rain Light Rain
3:15 PM 65.3 °F 52.2 °F 62% 29.67 in 10.0 mi SSW 9.2 mph - N/A   Overcast
3:35 PM 65.5 °F 51.1 °F 60% 29.67 in 10.0 mi South 6.9 mph - N/A   Overcast
3:55 PM 66.4 °F 50.5 °F 57% 29.68 in 10.0 mi South 6.9 mph - N/A   Overcast
4:15 PM 67.3 °F 50.4 °F 55% 29.68 in 10.0 mi SW 6.9 mph - N/A   Scattered Clouds
4:35 PM 67.3 °F 50.4 °F 55% 29.68 in 10.0 mi SW 4.6 mph - N/A   Mostly Cloudy
4:55 PM 68.0 °F 50.0 °F 52% 29.68 in 10.0 mi SE 4.6 mph - N/A   Overcast
5:15 PM 69.8 °F 47.7 °F 45% 29.69 in 10.0 mi SE 9.2 mph - N/A   Overcast
5:35 PM 68.0 °F 48.2 °F 49% 29.70 in 10.0 mi ESE 4.6 mph - N/A   Overcast
5:55 PM 67.6 °F 48.9 °F 51% 29.71 in 10.0 mi SE 6.9 mph - N/A   Overcast
6:15 PM 68.2 °F 49.1 °F 50% 29.71 in 10.0 mi SE 8.1 mph - N/A   Scattered Clouds
6:35 PM 68.0 °F 48.7 °F 50% 29.71 in 10.0 mi SE 8.1 mph - N/A   Clear
6:55 PM 66.0 °F 49.6 °F 55% 29.73 in 10.0 mi SSE 8.1 mph - N/A   Scattered Clouds
7:15 PM 63.1 °F 51.1 °F 65% 29.76 in 10.0 mi NNW 15.0 mph 18.4 mph N/A   Mostly Cloudy
7:35 PM 60.4 °F 51.3 °F 72% 29.77 in 10.0 mi NNW 13.8 mph 20.7 mph N/A   Overcast
7:55 PM 59.5 °F 52.0 °F 76% 29.78 in 10.0 mi North 13.8 mph 19.6 mph N/A   Overcast
8:15 PM 59.0 °F 52.7 °F 80% 29.79 in 10.0 mi North 12.7 mph 16.1 mph N/A   Overcast
8:35 PM 58.3 °F 52.7 °F 82% 29.80 in 10.0 mi North 11.5 mph 18.4 mph N/A   Overcast
8:55 PM 58.1 °F 52.7 °F 82% 29.82 in 10.0 mi NNW 13.8 mph - N/A   Overcast
9:15 PM 58.1 °F 52.2 °F 81% 29.83 in 10.0 mi NNW 12.7 mph 17.3 mph N/A   Overcast
9:35 PM 58.1 °F 52.2 °F 81% 29.83 in 10.0 mi NNW 12.7 mph 24.2 mph N/A   Overcast
9:55 PM 58.3 °F 52.2 °F 80% 29.84 in 10.0 mi North 15.0 mph 27.6 mph N/A   Overcast
10:15 PM 58.1 °F 52.0 °F 80% 29.85 in 10.0 mi NNW 16.1 mph 23.0 mph N/A   Overcast
10:35 PM 58.1 °F 51.8 °F 80% 29.86 in 10.0 mi NNW 15.0 mph 18.4 mph N/A   Overcast
10:55 PM 57.7 °F 51.4 °F 79% 29.86 in 10.0 mi North 18.4 mph 24.2 mph N/A   Overcast
11:15 PM 57.7 °F 51.3 °F 79% 29.87 in 10.0 mi NNW 15.0 mph 19.6 mph N/A   Overcast
11:35 PM 57.4 °F 50.9 °F 79% 29.87 in 10.0 mi NNW 16.1 mph 19.6 mph N/A   Overcast
11:55 PM 57.4 °F 50.9 °F 79% 29.88 in 10.0 mi NNW 12.7 mph - N/A   Overcast